TIANMU-1 07

Last updated on Thu Jul 03 2025 00:02:22 GMT+0000 (Coordinated Universal Time)

1 57399U 23101A 25183.56911051 .00004643 00000+0 18708-3 0 9990 2 57399 97.3097 237.1189 0002537 307.5343 52.5664 15.25328445108267
UTC large
Height (km)
Speed (km/s)
/
Latitude / Longitude
Inclination (degrees)
Orbital Period (minutes)
Azimuth
Elevation
Range (km)
Doppler Factor

Next 0 passes for location: London (51.5072 / 0.1276)

Sorry there are no passes over London.